Weather in Spasskaya Guba

Russia / Republic of Karelia     62°12′56″N   33°48′56″E
temp.,
°C
wind,
m/s
gust,
m/s
humid.,
%
clouds,
%
prec.,
mm/h
press.,
hPa
HPBL,
m
7 august, sun
sun700:00+15w51094100 12.6 1010487
03:00+13sw4119592 12.9 1011560
06:00+14wsw51089100 0.1 1012963
09:00+14wsw5971100 0.1 1014933
12:00+17wsw4753100 0.0 10141766
15:00+18w4754100 0.0 10151432
18:00+17wsw475962 0.1 10161105
21:00+13sw28755 0.1 1017245
8 august, mon
mon800:00+13sw3107648 0.0 1018358
03:00+10sw27875 0.0 1019140
06:00+11wsw27845 0.0 1020193
09:00+15sw246690 0.0 1021487
12:00+18sw3558100 0.3 10211396
15:00+19wsw3449100 0.7 10211691
18:00+16wsw3574100 0.5 1022169
21:00+13sw2384100 1.3 102363
9 august, tue
tue900:00+12ssw0192100 0.6 102412
03:00+12ese0090100 0.7 102411
06:00+12nw0092100 0.2 102514
09:00+13ene259289 0.8 1025282
12:00+17nne365457 0.1 10251250
15:00+15n256397 0.1 1025584
18:00+17nne23575 0.0 1024974
21:00+12nnw22833 0.0 102518
10 august, wed
wed1000:00+10nnw11935 0.0 102512
03:00+10nnw11960 0.0 102410
06:00+11nw019313 0.0 102419
09:00+16nnw117194 0.0 1023409
12:00+21wsw115133 0.0 10221451
15:00+20w135699 0.0 1021918
18:00+21wsw144580 0.0 10211722
21:00+16wsw286692 0.0 1021275
11 august, thu
thu1100:00+12wsw278178 0.0 1021139
03:00+11sw2980100 0.0 1020149
06:00+14sw31077100 0.0 1020278
09:00+16sw31178100 0.0 1019579
12:00+19sw4962100 0.0 1018894
15:00+21sw5959100 0.0 10161139
18:00+20sw51164100 0.0 10151073
21:00+16wsw41396100 2.8 1015660